Weather History for Worthington, MN

Change the Weather History Date:

Friday, January 6, 2012

  Actual Average Record
Temperature  
Mean Temperature 40 °F -  
Max Temperature 46 °F 22 °F 46 °F (2012)
Min Temperature 33 °F 8 °F -26 °F (1988)
Degree Days  
Heating Degree Days 26    
Moisture  
Dew Point 25 °F    
Average Humidity 57    
Maximum Humidity 70    
Minimum Humidity 40    
Precipitation  
Precipitation 0.00 in - - ()
Sea Level Pressure  
Sea Level Pressure 29.78 in    
Wind  
Wind Speed 10 mph (WNW)    
Max Wind Speed 24 mph    
Max Gust Speed 29 mph    
Visibility 10 miles    
Events      
Averages and records for this station are not official NWS values.
T = Trace of Precipitation, MM = Missing Value Source: NWS Daily Summary

Daily Weather History Graph

Daily Weather History Graph

Search for Another Location

Airport:

Trip Planner

Search our weather history database for the weather conditions in past years. The results will help you decide how hot, cold, wet, or windy it might be!

Date:

Astronomy

Jan. 06, 2012 Rise Set
Actual Time 7:55 AM CST 5:00 PM CST
Civil Twilight 7:23 AM CST 5:32 PM CST
Nautical Twilight 6:47 AM CST 6:08 PM CST
Astronomical Twilight 6:12 AM CST 6:43 PM CST
Moon 2:51 PM CST (1/6) 5:37 AM CST (1/6)
Length of Visible Light 10h 09m
Length of Day
9h 04m
Waxing Gibbous, 93% of the Moon is Illuminated
Jan 6
Waxing Gibbous
Jan 9
Full
Jan 16
Last Quarter
Jan 23
New
Jan 30
First Quarter

Hourly Weather History & Observations

Time (CST) Temp. Windchill Dew Point Humidity Pressure Visibility Wind Dir Wind Speed Gust Speed Precip Events Conditions
12:15 AM 41.0 °F 36.4 °F 26.6 °F 57% 29.65 in 10.0 mi NW 6.9 mph - N/A   Clear
12:35 AM 41.0 °F 36.4 °F 26.6 °F 57% 29.66 in 10.0 mi NW 6.9 mph - N/A   Clear
12:55 AM 42.8 °F 38.6 °F 26.6 °F 53% 29.66 in 10.0 mi NW 6.9 mph - N/A   Clear
1:15 AM 42.8 °F 38.0 °F 26.6 °F 53% 29.66 in 10.0 mi NW 8.1 mph - N/A   Clear
1:35 AM 42.8 °F 38.0 °F 26.6 °F 53% 29.66 in 10.0 mi NW 8.1 mph - N/A   Clear
2:15 AM 42.8 °F 36.2 °F 26.6 °F 53% 29.67 in 10.0 mi NNW 12.7 mph - N/A   Clear
2:35 AM 41.0 °F 33.9 °F 24.8 °F 53% 29.68 in 10.0 mi NNW 12.7 mph - N/A   Clear
2:55 AM 39.2 °F 33.0 °F 24.8 °F 56% 29.68 in 10.0 mi NNW 9.2 mph - N/A   Clear
3:15 AM 39.2 °F 33.6 °F 24.8 °F 56% 29.69 in 10.0 mi NNW 8.1 mph - N/A   Clear
3:35 AM 37.4 °F 32.1 °F 24.8 °F 60% 29.69 in 10.0 mi NNW 6.9 mph - N/A   Clear
3:55 AM 39.2 °F 32.5 °F 24.8 °F 56% 29.70 in 10.0 mi NNW 10.4 mph - N/A   Clear
4:15 AM 39.2 °F 32.5 °F 24.8 °F 56% 29.70 in 10.0 mi NNW 10.4 mph - N/A   Clear
4:35 AM 37.4 °F 31.4 °F 24.8 °F 60% 29.70 in 10.0 mi NNW 8.1 mph - N/A   Clear
4:55 AM 37.4 °F 32.1 °F 24.8 °F 60% 29.71 in 10.0 mi NW 6.9 mph - N/A   Clear
5:15 AM 35.6 °F 29.9 °F 24.8 °F 65% 29.71 in 10.0 mi NNW 6.9 mph - N/A   Clear
5:35 AM 35.6 °F 29.2 °F 24.8 °F 65% 29.72 in 10.0 mi NW 8.1 mph - N/A   Clear
5:55 AM 33.8 °F 27.7 °F 23.0 °F 65% 29.73 in 10.0 mi NW 6.9 mph - N/A   Clear
6:15 AM 33.8 °F 27.7 °F 23.0 °F 65% 29.74 in 10.0 mi WNW 6.9 mph - N/A   Clear
6:35 AM 33.8 °F 25.8 °F 23.0 °F 65% 29.74 in 10.0 mi NW 10.4 mph - N/A   Clear
6:55 AM 33.8 °F 27.7 °F 23.0 °F 65% 29.74 in 10.0 mi NW 6.9 mph - N/A   Clear
7:15 AM 33.8 °F 27.0 °F 24.8 °F 70% 29.75 in 10.0 mi WNW 8.1 mph - N/A   Clear
7:35 AM 35.6 °F 29.9 °F 24.8 °F 65% 29.76 in 10.0 mi West 6.9 mph - N/A   Clear
7:55 AM 35.6 °F 29.9 °F 24.8 °F 65% 29.77 in 10.0 mi West 6.9 mph - N/A   Clear
8:15 AM 35.6 °F 28.6 °F 24.8 °F 65% 29.78 in 10.0 mi West 9.2 mph - N/A   Clear
8:35 AM 35.6 °F 27.5 °F 24.8 °F 65% 29.79 in 10.0 mi WNW 11.5 mph - N/A   Clear
8:55 AM 37.4 °F 30.3 °F 24.8 °F 60% 29.80 in 10.0 mi WNW 10.4 mph - N/A   Clear
9:15 AM 37.4 °F 30.3 °F 24.8 °F 60% 29.81 in 10.0 mi West 10.4 mph - N/A   Clear
9:35 AM 37.4 °F 30.3 °F 24.8 °F 60% 29.82 in 10.0 mi West 10.4 mph - N/A   Clear
9:55 AM 37.4 °F 30.8 °F 24.8 °F 60% 29.83 in 10.0 mi West 9.2 mph - N/A   Clear
10:15 AM 37.4 °F 30.8 °F 24.8 °F 60% 29.83 in 10.0 mi West 9.2 mph - N/A   Mostly Cloudy
10:35 AM 35.6 °F 28.0 °F 24.8 °F 65% 29.84 in 10.0 mi West 10.4 mph - N/A   Overcast
10:55 AM 37.4 °F 30.3 °F 26.6 °F 65% 29.84 in 10.0 mi West 10.4 mph - N/A   Partly Cloudy
11:15 AM 39.2 °F 32.5 °F 26.6 °F 61% 29.83 in 10.0 mi West 10.4 mph - N/A   Clear
11:35 AM 41.0 °F 33.5 °F 26.6 °F 57% 29.83 in 10.0 mi West 13.8 mph - N/A   Mostly Cloudy
11:55 AM 41.0 °F 34.3 °F 26.6 °F 57% 29.83 in 10.0 mi West 11.5 mph - N/A   Mostly Cloudy
12:15 PM 39.2 °F 31.6 °F 26.6 °F 61% 29.82 in 10.0 mi West 12.7 mph - N/A   Partly Cloudy
12:35 PM 39.2 °F 32.0 °F 24.8 °F 56% 29.83 in 10.0 mi West 11.5 mph - N/A   Clear
12:55 PM 41.0 °F 31.9 °F 26.6 °F 57% 29.82 in 10.0 mi West 19.6 mph 23.0 mph N/A   Partly Cloudy
1:15 PM 42.8 °F 35.1 °F 26.6 °F 53% 29.81 in 10.0 mi West 16.1 mph 20.7 mph N/A   Scattered Clouds
1:35 PM 42.8 °F 35.4 °F 26.6 °F 53% 29.81 in 10.0 mi West 15.0 mph - N/A   Mostly Cloudy
1:55 PM 42.8 °F 36.2 °F 26.6 °F 53% 29.81 in 10.0 mi WNW 12.7 mph - N/A   Scattered Clouds
2:15 PM 44.6 °F 36.6 °F 24.8 °F 46% 29.81 in 10.0 mi WNW 19.6 mph 28.8 mph N/A   Clear
2:35 PM 46.4 °F 39.0 °F 24.8 °F 43% 29.81 in 10.0 mi West 19.6 mph - N/A   Clear
2:55 PM 46.4 °F 38.3 °F 23.0 °F 40% 29.82 in 10.0 mi WSW 23.0 mph 28.8 mph N/A   Clear
3:15 PM 46.4 °F 39.8 °F 23.0 °F 40% 29.83 in 10.0 mi West 16.1 mph 27.6 mph N/A   Clear
3:35 PM 44.6 °F 35.7 °F 23.0 °F 43% 29.83 in 10.0 mi West 24.2 mph 28.8 mph N/A   Clear
3:55 PM 44.6 °F 37.2 °F 23.0 °F 43% 29.84 in 10.0 mi WNW 17.3 mph - N/A   Clear
4:15 PM 42.8 °F 35.4 °F 23.0 °F 46% 29.85 in 10.0 mi West 15.0 mph 21.9 mph N/A   Clear
4:55 PM 39.2 °F 31.6 °F 21.2 °F 49% 29.87 in 10.0 mi West 12.7 mph - N/A   Clear
5:15 PM 37.4 °F 29.8 °F 19.4 °F 48% 29.88 in 10.0 mi West 11.5 mph - N/A   Clear
5:35 PM 35.6 °F 27.1 °F 21.2 °F 56% 29.88 in 10.0 mi West 12.7 mph - N/A   Clear
5:55 PM 35.6 °F 27.1 °F 21.2 °F 56% 29.88 in 10.0 mi WSW 12.7 mph - N/A   Clear
6:15 PM 33.8 °F 24.8 °F 21.2 °F 60% 29.89 in 10.0 mi WSW 12.7 mph - N/A   Clear
6:35 PM 33.8 °F 25.3 °F 21.2 °F 60% 29.89 in 10.0 mi WSW 11.5 mph - N/A   Clear
6:55 PM 33.8 °F 25.3 °F 21.2 °F 60% 29.89 in 10.0 mi WSW 11.5 mph - N/A   Clear
7:15 PM 33.8 °F 25.8 °F 21.2 °F 60% 29.91 in 10.0 mi WSW 10.4 mph - N/A   Clear
7:35 PM 33.8 °F 25.8 °F 19.4 °F 56% 29.91 in 10.0 mi WSW 10.4 mph - N/A   Clear
7:55 PM 33.8 °F 25.3 °F 19.4 °F 56% 29.91 in 10.0 mi WSW 11.5 mph - N/A   Clear
8:15 PM 33.8 °F 24.8 °F 19.4 °F 56% 29.91 in 10.0 mi WSW 12.7 mph - N/A   Clear
8:35 PM 33.8 °F 23.9 °F 19.4 °F 56% 29.92 in 10.0 mi West 15.0 mph - N/A   Clear
8:55 PM 33.8 °F 24.3 °F 19.4 °F 56% 29.91 in 10.0 mi West 13.8 mph - N/A   Clear
9:15 PM 33.8 °F 23.9 °F 17.6 °F 52% 29.90 in 10.0 mi West 15.0 mph - N/A   Clear
9:35 PM 33.8 °F 23.5 °F 19.4 °F 56% 29.90 in 10.0 mi West 16.1 mph - N/A   Clear
9:55 PM 33.8 °F 24.8 °F 17.6 °F 52% 29.90 in 10.0 mi West 12.7 mph - N/A   Clear
10:15 PM 32.0 °F 22.1 °F 19.4 °F 60% 29.92 in 10.0 mi West 13.8 mph - N/A   Clear
10:35 PM 32.0 °F 22.1 °F 19.4 °F 60% 29.93 in 10.0 mi West 13.8 mph - N/A   Clear
10:55 PM 30.2 °F 19.8 °F 17.6 °F 60% 29.93 in 10.0 mi WNW 13.8 mph - N/A   Clear
11:15 PM 30.2 °F 20.2 °F 17.6 °F 60% 29.93 in 10.0 mi West 12.7 mph - N/A   Clear
11:35 PM 30.2 °F 21.9 °F 17.6 °F 60% 29.94 in 10.0 mi West 9.2 mph - N/A   Clear
11:55 PM 28.4 °F 19.7 °F 17.6 °F 64% 29.94 in 10.0 mi West 9.2 mph - N/A   Clear